Tracking 31027 objects as of 19-Jul-2025
HD Live streaming from Space Station
objects crossing your sky now

SL-16 DEB

Track SL-16 DEB now!
10-day predictions


NORAD ID: 22333
Int'l Code: 1992-093W
Perigee: 659.4 km
Apogee: 834.3 km
Inclination: 71.0 °
Period: 99.6 minutes
Semi major axis: 7117 km
RCS: 0.1907 m2 (medium)
Launch date: December 25, 1992
Source: Commonwealth of Independent States (former USSR) (CIS)
Launch site: TYURATAM MISSILE AND SPACE COMPLEX (TTMTR)

Note: This is SATELLITE DEBRIS
Your satellite tracking list
COSMOS 1656
Track 1 satellite(s)




NASA's NSSDC Master Catalog

Two Line Element Set (TLE):
1 22333U 92093W   25199.43869502  .00000384  00000-0  11346-3 0  9992
2 22333  71.0035  94.3350 0122922  25.0223 335.6804 14.45703817691822
Source of the keplerian elements: AFSPC